CW5292 Weather Reports


time (UTC)temp
F
wind
direction
speed
knots
gust
knots
rain 1hr
in
rain 24hr
in
rain mn
in
humidity
%
barometer
mb
20260507210323 66 297 4.3 8.7 0.00 0.19 0.19 40 1008.1
20260507205832 66 280 6.1 9.6 0.00 0.19 0.19 39 1008.1
20260507205322 66 311 4.3 9.6 0.00 0.19 0.19 41 1007.8
20260507204832 66 313 1.7 8.7 0.00 0.19 0.19 42 1007.7
20260507204344 65 275 3.5 9.6 0.00 0.19 0.19 38 1007.7
20260507203834 65 280 2.6 7.8 0.00 0.19 0.19 40 1007.7
20260507203326 65 290 4.3 9.6 0.00 0.19 0.19 39 1007.8
20260507202817 65 360 6.1 9.6 0.00 0.19 0.19 39 1007.8
20260507202327 65 275 6.1 8.7 0.00 0.19 0.19 39 1007.9
20260507201818 65 313 4.3 7.8 0.00 0.19 0.19 41 1007.9
20260507201331 65 298 4.3 7.0 0.00 0.19 0.19 41 1007.9
20260507200842 65 326 5.2 9.6 0.00 0.19 0.19 40 1007.9
20260507200352 65 355 3.5 9.6 0.00 0.19 0.19 41 1007.9
20260507195822 65 331 5.2 12.2 0.00 0.19 0.19 41 1008.0
20260507195334 65 325 5.2 12.2 0.00 0.19 0.19 41 1008.1
20260507194824 65 334 2.6 8.7 0.00 0.19 0.19 42 1008.2
20260507194334 65 12 0.0 7.0 0.00 0.19 0.19 44 1008.2
20260507193826 65 329 2.6 5.2 0.00 0.19 0.19 43 1008.3
20260507193316 64 56 1.7 3.5 0.00 0.19 0.19 45 1008.3
20260507192828 64 296 0.0 6.1 0.00 0.19 0.19 46 1008.5
20260507192338 64 279 3.5 6.1 0.00 0.19 0.19 47 1008.5
20260507191828 64 305 0.9 5.2 0.00 0.19 0.19 46 1008.6
20260507191320 64 304 2.6 7.0 0.00 0.19 0.19 46 1008.9
20260507190827 64 322 2.6 9.6 0.00 0.19 0.19 43 1009.2
20260507190318 64 295 5.2 9.6 0.00 0.19 0.19 45 1009.0
20260507185827 65 347 3.5 7.8 0.00 0.19 0.19 46 1008.9
20260507185317 65 315 4.3 7.8 0.00 0.19 0.19 48 1008.9
20260507184826 64 261 6.1 13.0 0.00 0.19 0.19 48 1009.0
20260507184336 64 328 5.2 13.0 0.00 0.19 0.19 44 1009.0
20260507183842 64 258 5.2 8.7 0.00 0.19 0.19 46 1008.8
20260507183332 64 282 3.5 8.7 0.00 0.19 0.19 48 1008.9
20260507182823 63 24 1.7 8.7 0.00 0.19 0.19 49 1009.0
20260507182400 63 327 1.7 7.0 0.00 0.19 0.19 49 1009.1
20260507181849 63 272 2.6 8.7 0.00 0.19 0.19 49 1009.2
20260507181338 63 284 5.2 8.7 0.00 0.19 0.19 48 1009.5
20260507180827 63 294 5.2 9.6 0.00 0.19 0.19 50 1009.2
20260507180317 63 333 5.2 9.6 0.00 0.19 0.19 51 1009.4
20260507175827 63 355 2.6 7.0 0.00 0.19 0.19 54 1009.3
20260507175317 63 24 2.6 7.0 0.00 0.19 0.19 53 1009.5
20260507174827 62 253 2.6 7.8 0.00 0.19 0.19 51 1009.7
20260507174317 62 313 3.5 8.7 0.00 0.19 0.19 52 1009.8
20260507173827 62 276 5.2 7.8 0.00 0.19 0.19 55 1009.9
20260507173337 61 297 3.5 8.7 0.00 0.19 0.19 54 1009.8
20260507172826 61 327 0.9 5.2 0.00 0.19 0.19 55 1009.8
20260507172337 61 318 3.5 7.0 0.00 0.19 0.19 55 1009.9
20260507171841 61 326 3.5 7.8 0.00 0.19 0.19 58 1010.0
20260507171330 61 19 2.6 7.8 0.00 0.19 0.19 56 1010.2
20260507170817 61 323 3.5 5.2 0.00 0.19 0.19 58 1010.3
20260507170327 60 20 0.9 5.2 0.00 0.19 0.19 58 1010.3
20260507165838 60 319 1.7 9.6 0.00 0.19 0.19 59 1010.4
20260507165329 60 310 2.6 9.6 0.00 0.19 0.19 58 1010.4
20260507164819 60 355 3.5 5.2 0.00 0.19 0.19 59 1010.4
20260507164331 60 279 3.5 6.1 0.00 0.19 0.19 61 1010.6
20260507163822 60 263 2.6 6.1 0.00 0.19 0.19 59 1010.7
20260507163331 60 273 2.6 7.0 0.00 0.19 0.19 59 1010.9
20260507162841 60 299 3.5 8.7 0.00 0.19 0.19 58 1011.0
20260507162352 60 360 3.5 8.7 0.00 0.19 0.19 58 1010.8
20260507161821 60 329 2.6 6.1 0.00 0.19 0.19 61 1010.8